COSMOS 249 DEB, 3583

Orbit data source: Space-Track

COSMOS 249 DEB, 3583 is space debris in LEO originally from a launch on Sun, 20 Oct 1968 UTC launched from the Tyuratam Missile And Space Complex (TTMTR). Debris objects in space refer to the collection of defunct objects orbiting the Earth. Examples of debris include non-operational satellites, rocket bodies, and fragments generated from explosions, collisions, or faulty payload assembly.

Loading next visibility...
Identifier
3583, 1968-091R
Orbit
LEO
Country
Flag of CISCIS
Related business
Manufacturer
Unknown
Mission
Spacecraft
Bus & Motor
Unknown
Mass
Unknown
Launch date (UTC)
1968-10-20 (57 years ago)
Launch vehicle
Unknown
Launch site
Tyuratam Missile And Space Complex (TTMTR)
Object type
Payload
Rocket body
Debris
Shape & HBR
Unknown shape, 0.1 m
Radar Cross Section
Small (<0.1 m²)

Expand to show TLE details & history
Last TLE update: 1 day ago

TLE from 1 day ago
0 COSMOS 249 DEB
1 03583U 68091R   25346.17789827  .00001150  00000-0  16653-2 0  9992
2 03583  62.0789 258.5811 0708836  99.1994 268.9813 12.85668485660176
Epoch: 2025-12-12T04:16Z
TLE epoch observation values (Epoch: 2025-12-12T04:16:10.410Z)
Latitude
-0.00005°
Longitude
113.41444°
Altitude
1,368.546 km
Speed
7.153 km/s
True Right ascension
17h 14m 19s
True Declination
0° 00' 00"
Sunlit
Object was in daylight at epoch
Visualization orbit readout
Latitude
Unknown
Longitude
Unknown
Altitude
Unknown
Speed
Unknown
Apparent Right ascension
Unknown
Apparent Declination
Unknown
Sunlit
N/A
Visualization observer readout
Local Sidereal Time
05:21:57
Azimuth
Unknown
Elevation
Unknown
Doppler factor
Unknown
Orbital elements
Apogee altitude
1,863.296 km
Perigee altitude
772.267 km
Semi-major axis
7,695.918 km
Eccentricity
0.07088
Inclination
62.0789°
RAAN
258.5811°
Arg. of periapsis
99.1994°
True anomaly
260.89957°
Mean anomaly
268.9813°
Eccentric anomaly
264.93582°
Mean motion
3.21479 °/min
Orbital period
111.98 mins
BSTAR
0.0016653
Loading maneuver chart data...
Computing Atmospheric mass density...

Documentation

Showing up to 5 results
|